Regional Weather Roundup
Issued by NWS

Home | Current Version | Previous Version | Graphics & Text | Print | Product List | Glossary On
Versions: 1 2 3 4 5 6 7 8 9 10 11 12 13 14 15 16 17 18 19 20 21 22 23 24 25 26 27 28 29 30 31 32 33 34 35 36 37 38 39 40 41 42 43 44 45 46 47 48 49 50
000
ASUS45 KCYS 272210
RWRWY

WYOMING REGIONAL WEATHER ROUNDUP
NATIONAL WEATHER SERVICE CHEYENNE WY
400 PM MDT WED AUG 27 2014

NOTE:  "FAIR" INDICATES FEW OR NO CLOUDS BELOW 12,000 FEET
WITH NO SIGNIFICANT WEATHER AND/OR OBSTRUCTIONS TO VISIBILITY.

WYZ001-272300-
YELLOWSTONE NATIONAL PARK

CITY           SKY/WX    TMP DP  RH WIND       PRES   REMARKS
LK YELLOWSTONE   N/A     63  37  38 VRB5      30.32F
W YELLOWSTONE  NOT AVBL

$$
WYZ002>013-054>058-071-098>099-272300-
NORTHERN WYOMING

CITY           SKY/WX    TMP DP  RH WIND       PRES   REMARKS
JACKSON        PTSUNNY   72  37  28 SW7       30.23F
CODY           PTSUNNY   75  45  33 SE3       30.12F
GREYBULL       CLOUDY    75  49  39 S8        30.07F
WORLAND        CLOUDY    74  54  49 W8        30.09F
SHERIDAN       PTSUNNY   78  48  34 W7        30.05F
BUFFALO        PTSUNNY   77  50  38 S12       30.12F
GILLETTE       CLOUDY    77  52  41 N3        30.07F
HULETT         FAIR      70  59  68 MISG      30.11
NEWCASTLE      FAIR      68  55  64 S12       30.12

$$
WYZ014>020-022>026-101>103-272300-
CENTRAL WYOMING

CITY           SKY/WX    TMP DP  RH WIND       PRES   REMARKS
BIG PINEY      CLOUDY    57  48  72 S6        30.31S
PINEDALE       RAIN      54  50  87 E7        30.33S
DUBOIS         CLOUDY    59  45  58 SE14G20   30.27S
LANDER         LGT RAIN  58  54  86 SE9       30.21F
RIVERTON       CLOUDY    58  53  84 SW12      30.21F
CASPER         CLOUDY    65  54  67 E5        30.15F
DOUGLAS        LGT RAIN  62  59  90 NW13      30.15F

$$
WYZ021-027>030-104>119-272300-
SOUTHERN WYOMING

CITY           SKY/WX    TMP DP  RH WIND       PRES   REMARKS
EVANSTON       PTSUNNY   59  44  57 S6        30.33F
KEMMERER       CLOUDY    59  46  63 W5        30.33S
FORT BRIDGER   MOCLDY    58  51  76 W5        30.35S
ROCK SPRINGS   LGT RAIN  54  47  77 N9        30.30S
DIXON          MOCLDY    62  49  64 S7        30.31S THUNDER
RAWLINS        CLOUDY    61  47  59 W12       30.25F
SARATOGA       LGT RAIN  52  48  87 W7        30.28S
LARAMIE        LGT RAIN  57  51  80 SW18      30.24R
CHEYENNE       MOSUNNY   69  50  50 N8        30.15F
TORRINGTON     CLOUDY    64  62  93 NE8       30.07F
PINE BLUFFS    CLOUDY    64  55  72 N7        30.13F

$$



USA.gov is the U.S. government's official web portal to all federal, state and local government web resources and services.